Time,TemperatureF,DewpointF,PressureIn,WindDirection,WindDirectionDegrees,WindSpeedMPH,WindSpeedGustMPH,Humidity,HourlyPrecipIn,Conditions,Clouds,dailyrainin,SoftwareType,DateUTC
2013-02-02 00:00:00,19.0,15.0,-100.00,North,-999,-999.0,-999.0,83,-99.99,,,-99.99,,2013-02-02 07:00:00,
2013-02-02 01:00:00,18.0,13.0,-100.00,North,-999,-999.0,-999.0,80,-99.99,,,0.00,,2013-02-02 08:00:00,
2013-02-02 01:53:00,18.0,13.0,-100.00,North,-999,-999.0,-999.0,80,-99.99,,,0.00,,2013-02-02 08:53:00,
2013-02-02 02:00:00,17.0,12.0,-100.00,North,-999,-999.0,-999.0,81,-99.99,,,-99.99,,2013-02-02 09:00:00,
2013-02-02 02:52:00,17.0,12.0,-100.00,North,-999,-999.0,-999.0,81,-99.99,,,-99.99,,2013-02-02 09:52:00,
2013-02-02 03:00:00,17.0,12.0,-100.00,North,-999,-999.0,-999.0,82,-99.99,,,-99.99,,2013-02-02 10:00:00,
2013-02-02 03:52:00,17.0,12.0,-100.00,North,-999,-999.0,-999.0,82,-99.99,,,-99.99,,2013-02-02 10:52:00,
2013-02-02 04:00:00,17.0,11.0,-100.00,North,-999,-999.0,-999.0,78,-99.99,,,0.00,,2013-02-02 11:00:00,
2013-02-02 04:52:00,17.0,11.0,-100.00,North,-999,-999.0,-999.0,78,-99.99,,,0.00,,2013-02-02 11:52:00,
2013-02-02 05:00:00,18.0,11.0,-100.00,North,-999,-999.0,-999.0,75,-99.99,,,-99.99,,2013-02-02 12:00:00,
2013-02-02 05:52:00,18.0,11.0,-100.00,North,-999,-999.0,-999.0,75,-99.99,,,-99.99,,2013-02-02 12:52:00,
2013-02-02 06:00:00,17.0,9.0,-100.00,North,-999,-999.0,-999.0,70,-99.99,,,-99.99,,2013-02-02 13:00:00,
2013-02-02 06:52:00,17.0,9.0,-100.00,North,-999,-999.0,-999.0,70,-99.99,,,-99.99,,2013-02-02 13:52:00,
2013-02-02 07:00:00,21.0,9.0,-100.00,North,-999,-999.0,-999.0,58,-99.99,,,0.00,,2013-02-02 14:00:00,
2013-02-02 07:52:00,21.0,9.0,-100.00,North,-999,-999.0,-999.0,58,-99.99,,,0.00,,2013-02-02 14:52:00,
2013-02-02 08:00:00,19.0,8.0,-100.00,North,-999,-999.0,-999.0,60,-99.99,,,-99.99,,2013-02-02 15:00:00,
2013-02-02 08:52:00,19.0,8.0,-100.00,North,-999,-999.0,-999.0,60,-99.99,,,-99.99,,2013-02-02 15:52:00,
2013-02-02 09:00:00,23.0,11.0,-100.00,North,-999,-999.0,-999.0,58,-99.99,,,-99.99,,2013-02-02 16:00:00,
2013-02-02 09:52:00,23.0,11.0,-100.00,North,-999,-999.0,-999.0,58,-99.99,,,-99.99,,2013-02-02 16:52:00,
2013-02-02 10:00:00,27.0,11.0,-100.00,North,-999,-999.0,-999.0,50,-99.99,,,0.00,,2013-02-02 17:00:00,
2013-02-02 10:52:00,27.0,11.0,-100.00,North,-999,-999.0,-999.0,50,-99.99,,,0.00,,2013-02-02 17:52:00,
2013-02-02 11:00:00,29.0,10.0,-100.00,North,-999,-999.0,-999.0,46,-99.99,,,-99.99,,2013-02-02 18:00:00,
2013-02-02 11:52:00,29.0,10.0,-100.00,North,-999,-999.0,-999.0,46,-99.99,,,-99.99,,2013-02-02 18:52:00,
2013-02-02 12:00:00,30.0,11.0,-100.00,North,-999,-999.0,-999.0,46,-99.99,,,-99.99,,2013-02-02 19:00:00,
2013-02-02 12:52:00,30.0,11.0,-100.00,North,-999,-999.0,-999.0,46,-99.99,,,-99.99,,2013-02-02 19:52:00,
2013-02-02 13:00:00,30.0,11.0,-100.00,North,-999,-999.0,-999.0,45,-99.99,,,0.00,,2013-02-02 20:00:00,
2013-02-02 13:52:00,30.0,11.0,-100.00,North,-999,-999.0,-999.0,45,-99.99,,,0.00,,2013-02-02 20:52:00,
2013-02-02 14:00:00,30.0,12.0,-100.00,North,-999,-999.0,-999.0,45,-99.99,,,-99.99,,2013-02-02 21:00:00,
2013-02-02 14:52:00,30.0,12.0,-100.00,North,-999,-999.0,-999.0,45,-99.99,,,-99.99,,2013-02-02 21:52:00,
2013-02-02 15:00:00,26.0,13.0,-100.00,North,-999,-999.0,-999.0,56,-99.99,,,-99.99,,2013-02-02 22:00:00,
2013-02-02 15:52:00,26.0,13.0,-100.00,North,-999,-999.0,-999.0,56,-99.99,,,-99.99,,2013-02-02 22:52:00,
2013-02-02 16:00:00,28.0,17.0,-100.00,North,-999,-999.0,-999.0,62,-99.99,,,0.00,,2013-02-02 23:00:00,
2013-02-02 16:52:00,28.0,17.0,-100.00,North,-999,-999.0,-999.0,62,-99.99,,,0.00,,2013-02-02 23:52:00,
2013-02-02 17:00:00,26.0,14.0,-100.00,North,-999,-999.0,-999.0,60,-99.99,,,-99.99,,2013-02-03 00:00:00,
2013-02-02 17:52:00,26.0,14.0,-100.00,North,-999,-999.0,-999.0,60,-99.99,,,-99.99,,2013-02-03 00:52:00,
2013-02-02 18:00:00,24.0,14.0,-100.00,North,-999,-999.0,-999.0,64,-99.99,,,-99.99,,2013-02-03 01:00:00,
2013-02-02 18:52:00,24.0,14.0,-100.00,North,-999,-999.0,-999.0,64,-99.99,,,-99.99,,2013-02-03 01:52:00,
2013-02-02 19:00:00,24.0,15.0,-100.00,North,-999,-999.0,-999.0,66,-99.99,,,0.00,,2013-02-03 02:00:00,
2013-02-02 19:52:00,24.0,15.0,-100.00,North,-999,-999.0,-999.0,66,-99.99,,,0.00,,2013-02-03 02:52:00,
2013-02-02 20:00:00,25.0,15.0,-100.00,North,-999,-999.0,-999.0,67,-99.99,,,-99.99,,2013-02-03 03:00:00,
2013-02-02 20:52:00,25.0,15.0,-100.00,North,-999,-999.0,-999.0,67,-99.99,,,-99.99,,2013-02-03 03:52:00,
2013-02-02 21:00:00,25.0,15.0,-100.00,North,-999,-999.0,-999.0,65,-99.99,,,-99.99,,2013-02-03 04:00:00,
2013-02-02 21:52:00,25.0,15.0,-100.00,North,-999,-999.0,-999.0,65,-99.99,,,-99.99,,2013-02-03 04:52:00,
2013-02-02 22:00:00,24.0,14.0,-100.00,North,-999,-999.0,-999.0,65,-99.99,,,0.00,,2013-02-03 05:00:00,
2013-02-02 22:52:00,24.0,14.0,-100.00,North,-999,-999.0,-999.0,65,-99.99,,,0.00,,2013-02-03 05:52:00,
2013-02-02 23:00:00,24.0,14.0,-100.00,North,-999,-999.0,-999.0,65,-99.99,,,-99.99,,2013-02-03 06:00:00,
2013-02-02 23:52:00,24.0,14.0,-100.00,North,-999,-999.0,-999.0,65,-99.99,,,-99.99,,2013-02-03 06:52:00,